Location: Johnson City
(36.3130°N, 82.3540°W)
Time: 17:46:22
(UTC-05:00)

X-37B - Pass Details

Date: 04 December 2021
Orbit: 334 x 337 km, 45.0° (Epoch: 11 January)

Event Time Altitude Azimuth Distance (km) Brightness Sun altitude
Rises 18:51:04 0° 228° (SW) 2,088 5.4 -19.0°
Reaches altitude 10° 18:53:05 10° 223° (SW) 1,256 4.0 -19.4°
Enters shadow 18:55:06 37° 195° (SSW) 532 1.4 -19.8°
